Weather History for KIDA - December, 2013

Change the Weather History Date:

Monday, December 16, 2013

  Actual Average Record
Temperature  
Mean Temperature 13 °F 20 °F  
Max Temperature 22 °F 29 °F 50 °F (1957)
Min Temperature 4 °F 12 °F -14 °F (1964)
Degree Days  
Heating Degree Days 52 45  
Month to date heating degree days 851 688  
Since 1 July heating degree days 2575 2591  
Cooling Degree Days 0 0  
Month to date cooling degree days 0 0  
Year to date cooling degree days 510 264  
Moisture  
Dew Point 7 °F    
Average Humidity 85    
Maximum Humidity 92    
Minimum Humidity 77    
Precipitation  
Precipitation T in 0.02 in 0.33 in (1984)
Month to date precipitation 0.09 0.47  
Year to date precipitation 6.26 9.99  
Sea Level Pressure  
Sea Level Pressure 30.56 in    
Wind  
Wind Speed 5 mph (North)    
Max Wind Speed 12 mph    
Max Gust Speed 13 mph    
Visibility 6 miles    
Events Fog    
T = Trace of Precipitation, MM = Missing Value Source: NWS Daily Summary

Daily Weather History Graph

Daily Weather History Graph

Search for Another Location

Airport or City:

Trip Planner

Search our weather history database for the weather conditions in past years. The results will help you decide how hot, cold, wet, or windy it might be!

Date:

Astronomy

Dec. 16, 2013 Rise Set
Actual Time 7:55 AM MST 4:52 PM MST
Civil Twilight 7:22 AM MST 5:25 PM MST
Nautical Twilight 6:46 AM MST 6:01 PM MST
Astronomical Twilight 6:11 AM MST 6:36 PM MST
Moon 4:48 PM MST (12/16) 7:05 AM MST (12/16)
Length of Visible Light 10h 03m
Length of Day
8h 57m
Full, 100% of the Moon is Illuminated
Dec 16
Full
Dec 17
Full
Dec 25
Last Quarter
Jan 1
New
Jan 7
First Quarter

Hourly Weather History & Observations

Time (MST) Temp. Windchill Dew Point Humidity Pressure Visibility Wind Dir Wind Speed Gust Speed Precip Events Conditions
12:53 AM 10.0 °F -0.9 °F 7.0 °F 87% 30.58 in 6.0 mi North 6.9 mph - N/A   Clear
1:53 AM 10.0 °F 1.8 °F 7.0 °F 87% 30.58 in 7.0 mi NNE 4.6 mph - N/A   Scattered Clouds
2:01 AM 10.0 °F -0.9 °F 7.0 °F 87% 30.41 in 7.0 mi NNE 6.9 mph - N/A   Mostly Cloudy
2:10 AM 10.0 °F 0.4 °F 7.0 °F 87% 30.41 in 7.0 mi North 5.8 mph - N/A   Scattered Clouds
2:21 AM 9.0 °F -0.9 °F 7.0 °F 92% 30.42 in 6.0 mi North 5.8 mph - N/A   Mostly Cloudy
2:33 AM 10.0 °F 1.8 °F 7.0 °F 87% 30.41 in 1.8 mi North 4.6 mph - N/A   Mostly Cloudy
2:47 AM 8.6 °F -2.6 °F 6.8 °F 92% 30.42 in 3.0 mi NNE 6.9 mph - N/A   Overcast
2:53 AM 9.0 °F 0.6 °F 6.1 °F 88% 30.59 in 6.0 mi North 4.6 mph - N/A   Mostly Cloudy
3:09 AM 9.0 °F -2.2 °F 6.1 °F 88% 30.42 in 8.0 mi North 6.9 mph - N/A   Partly Cloudy
3:53 AM 9.0 °F 2.4 °F 5.0 °F 84% 30.59 in 10.0 mi North 3.5 mph - N/A   Clear
4:53 AM 9.0 °F 2.4 °F 5.0 °F 84% 30.61 in 10.0 mi NE 3.5 mph - N/A   Clear
5:53 AM 9.0 °F 2.4 °F 6.1 °F 88% 30.61 in 10.0 mi ENE 3.5 mph - N/A   Clear
6:39 AM 6.1 °F -6.8 °F 1.9 °F 83% 30.42 in 10.0 mi North 8.1 mph - N/A   Scattered Clouds
6:48 AM 6.8 °F -4.8 °F 1.4 °F 79% 30.42 in 9.0 mi North 6.9 mph - N/A   Mostly Cloudy
6:53 AM 6.1 °F -4.3 °F 3.0 °F 87% 30.66 in 9.0 mi North 5.8 mph - N/A   Mostly Cloudy
7:12 AM 6.1 °F -5.6 °F 1.9 °F 83% 30.42 in 3.0 mi NE 6.9 mph - N/A Fog Overcast
7:51 AM 3.2 °F -9.1 °F 1.4 °F 92% 30.43 in 3.0 mi North 6.9 mph - N/A Fog Mostly Cloudy
7:53 AM 3.9 °F -6.9 °F 1.0 °F 88% 30.68 in 2.0 mi North 5.8 mph - N/A Fog Mostly Cloudy
8:06 AM 3.9 °F -5.3 °F 1.0 °F 88% 30.44 in 3.0 mi NNE 4.6 mph - N/A Fog Mostly Cloudy
8:53 AM 6.1 °F -4.3 °F 3.0 °F 87% 30.69 in 5.0 mi North 5.8 mph - N/A Fog Haze
9:53 AM 8.1 °F 1.4 °F 5.0 °F 87% 30.69 in 7.0 mi NNW 3.5 mph - 0.00 in Fog Scattered Clouds
10:53 AM 12.9 °F 2.6 °F 10.0 °F 88% 30.69 in 7.0 mi North 6.9 mph - N/A Fog Scattered Clouds
11:53 AM 17.1 °F 6.6 °F 12.0 °F 81% 30.67 in 7.0 mi NNE 8.1 mph - N/A   Partly Cloudy
12:53 PM 18.0 °F 12.7 °F 14.0 °F 84% 30.66 in 7.0 mi NNE 3.5 mph - N/A   Partly Cloudy
1:53 PM 19.9 °F 11.1 °F 15.1 °F 81% 30.65 in 8.0 mi NNE 6.9 mph - N/A   Partly Cloudy
2:53 PM 21.0 °F - 16.0 °F 81% 30.64 in 8.0 mi Calm Calm - N/A   Partly Cloudy
3:53 PM 19.9 °F 14.9 °F 16.0 °F 85% 30.65 in 8.0 mi North 3.5 mph - N/A   Partly Cloudy
4:53 PM 17.1 °F 7.6 °F 14.0 °F 88% 30.66 in 9.0 mi North 6.9 mph - N/A   Partly Cloudy
5:53 PM 15.1 °F - 12.0 °F 88% 30.67 in 8.0 mi Calm Calm - N/A   Clear
6:53 PM 12.0 °F 5.9 °F 9.0 °F 88% 30.70 in 7.0 mi NNE 3.5 mph - N/A   Clear
7:53 PM 12.0 °F 4.1 °F 9.0 °F 88% 30.73 in 7.0 mi NE 4.6 mph - N/A   Clear
8:14 PM 14.0 °F 8.2 °F 10.9 °F 88% 30.46 in 7.0 mi ENE 3.5 mph - N/A   Scattered Clouds
8:37 PM 10.9 °F - 9.0 °F 92% 30.45 in 1.5 mi Calm Calm - N/A   Partly Cloudy
8:40 PM 10.9 °F 4.7 °F 9.0 °F 92% 30.45 in 0.8 mi NNW 3.5 mph - N/A   Mist
8:53 PM 10.0 °F 1.8 °F 8.1 °F 92% 30.71 in 0.2 mi NNW 4.6 mph - N/A Fog Light Freezing Fog
9:03 PM 8.1 °F -3.2 °F 5.0 °F 87% 30.47 in 1.0 mi NNW 6.9 mph - N/A   Mist
9:05 PM 8.1 °F -2.0 °F 5.0 °F 87% 30.47 in 2.0 mi NNW 5.8 mph - N/A   Scattered Clouds
9:12 PM 8.1 °F -3.2 °F 6.1 °F 92% 30.47 in 8.0 mi NNW 6.9 mph - N/A   Scattered Clouds
9:53 PM 10.0 °F -2.9 °F 8.1 °F 92% 30.73 in 6.0 mi NNE 9.2 mph - N/A   Clear
10:15 PM 8.1 °F -0.5 °F 6.1 °F 92% 30.48 in 2.5 mi North 4.6 mph - N/A   Scattered Clouds
10:53 PM 9.0 °F -2.2 °F 6.1 °F 88% 30.73 in 5.0 mi NE 6.9 mph - N/A   Overcast
11:30 PM 8.1 °F 1.4 °F 5.0 °F 87% 30.49 in 1.8 mi NNE 3.5 mph - N/A   Overcast
11:39 PM 8.1 °F - 5.0 °F 87% 30.49 in 0.5 mi Calm Calm - N/A Fog Light Freezing Fog
11:50 PM 8.6 °F - 6.8 °F 92% 30.49 in 0.2 mi Calm Calm - N/A Fog Light Freezing Fog
11:53 PM 8.1 °F -0.5 °F 6.1 °F 92% 30.71 in 0.2 mi NNW 4.6 mph - N/A Fog Light Freezing Fog